This is the latest recevied weather packets stored in our database for station/object KG4GJX. If no packets are shown the sender has not sent any weather packets the latest 10 day(s).
| Time | Temp. | Humidity | Pressure | Rain* | Wind** | Luminosity | Snow |
|---|---|---|---|---|---|---|---|
| 1788531950 | 30° C | 73% | 1018.6 hPa | 0 mm | - | - | - |
| 1788531287 | 29.44° C | 82% | 1018.2 hPa | 0 mm | - | - | - |
| 1788530644 | 28.89° C | 89% | 1018.2 hPa | 0 mm | - | - | - |
| 1788529961 | 27.78° C | 95% | 1018.2 hPa | 0 mm | - | - | - |
| 1788529298 | 27.22° C | 100% | 1018.2 hPa | 0 mm | - | - | - |
| 1788528636 | 26.11° C | 100% | 1018.2 hPa | 0 mm | - | - | - |
| 1788527974 | 25.56° C | 100% | 1018.2 hPa | 0 mm | - | - | - |
| 1788527311 | 25.56° C | 100% | 1018.2 hPa | 0 mm | - | - | - |
| 1788526649 | 25° C | 100% | 1018.2 hPa | 0 mm | - | - | - |
| 1788525326 | 23.89° C | 100% | 1018.2 hPa | 0 mm | - | - | - |
| 1788524004 | 22.78° C | 100% | 1017.9 hPa | 0 mm | - | - | - |
| 1788521361 | 22.22° C | 100% | 1017.9 hPa | 0 mm | - | - | - |
| 1788520039 | 22.22° C | 100% | 1017.6 hPa | 0 mm | - | - | - |
| 1788518717 | 22.22° C | 100% | 1017.2 hPa | 0 mm | - | - | - |
| 1788517394 | 22.78° C | 100% | 1017.2 hPa | 0 mm | - | - | - |
| 1788512772 | 22.78° C | 100% | 1016.9 hPa | 0 mm | - | - | - |
| 1788510790 | 22.78° C | 100% | 1016.5 hPa | 0 mm | - | - | - |
| 1788508147 | 23.33° C | 100% | 1016.5 hPa | 0 mm | - | - | - |
| 1788507485 | 23.33° C | 100% | 1016.2 hPa | 0 mm | - | - | - |
| 1788506822 | 23.33° C | 100% | 1016.5 hPa | 0 mm | - | - | - |
| 1788502860 | 23.89° C | 100% | 1016.5 hPa | 0 mm | - | - | - |
| 1788502197 | 23.89° C | 100% | 1016.9 hPa | 0 mm | - | - | - |
| 1788498895 | 24.44° C | 100% | 1016.9 hPa | 0 mm | - | - | - |
| 1788497572 | 24.44° C | 100% | 1017.2 hPa | 0 mm | - | - | - |
| 1788496250 | 25° C | 100% | 1017.2 hPa | 0 mm | - | - | - |
* Rain latest hour (hover to see other rain measurements)
** Current wind speed in m/s (hover to see current wind gust speed)